User: anonymous   Login
Location: Unspecified
(0.0000°N, 0.0000°E)
Time: 10:15:45
(UTC+00:00)
Language:

COSMOS 2498 - Orbit

View from above orbital plane
View from above orbital plane
View from above satellite
View from above satellite

Ground track
Ground track

The orbit data is extracted from the following two-line orbital elements,

1 39763U 14028C   19081.76268900 +.00000014 +00000-0 +28162-4 0  9998
2 39763 082.4495 324.6052 0021761 070.3194 290.0234 12.42876729219207
Epoch (UTC): 22 March 2019 18:18:16
Eccentricity: 0.0021761
inclination: 82.4495°
perigee height: 1477 km
apogee height: 1511 km
right ascension of ascending node: 324.6052°
argument of perigee: 70.3194°
revolutions per day: 12.42876729
mean anomaly at epoch: 290.0234°
orbit number at epoch: 21920

The dashed part of the orbit path shows where the satellite is in the earth's shadow,  

DLR